Wind_Speed
49 50 48 46 43 41 41 43 43 49 58 56 51 40 43 36 28 22 13 6 6 15 13 9 7 8 15 8 10 12 13 14 20 23 25 21 24 26 29 18 23 35 37 32
45 48 47 46 44 45 47 47 47 50 55 56 55 42 37 30 26 15 1 3 7 14 9 9 14 14 14 14 11 10 11 11 16 22 22 24 29 33 38 29 27 32 30 29
42 46 48 41 44 44 46 46 47 48 56 61 57 41 34 25 26 19 11 6 19 19 12 9 22 17 15 14 16 11 13 13 22 27 31 33 29 28 31 27 23 26 25 22
44 44 40 41 45 46 49 50 46 48 59 67 58 55 45 37 31 23 30 28 25 25 17 10 22 22 18 18 17 15 17 18 32 29 37 23 25 24 28 23 22 24 24 22
39 40 41 41 46 48 49 45 38 43 59 67 61 56 49 43 36 32 29 28 28 24 12 7 7 28 23 22 19 16 14 25 29 31 27 22 24 19 23 25 22 21 21 24
37 39 41 48 54 47 43 40 32 40 56 64 64 60 52 47 36 35 31 33 22 12 6 9 7 22 30 23 23 20 21 24 32 30 26 24 22 25 26 22 19 22 24 26
39 39 40 51 54 48 45 38 35 40 56 65 61 60 50 51 40 37 43 34 22 29 12 12 7 12 35 29 27 27 23 27 27 29 19 23 25 24 29 26 26 27 30 31
44 42 42 53 50 46 46 42 38 39 55 66 69 66 48 48 54 48 51 43 36 36 22 13 15 5 24 34 33 35 31 29 28 24 24 24 24 27 31 31 33 33 29 33
53 50 46 54 50 47 47 44 43 41 55 66 71 73 70 64 59 51 49 46 42 34 28 16 20 13 9 28 40 39 38 36 34 32 27 28 30 24 20 19 20 22 24 27
61 59 55 54 52 44 45 44 47 45 49 64 76 74 78 74 70 68 60 46 42 41 38 25 25 18 16 23 34 45 41 36 34 38 33 28 26 25 26 26 27 26 27 30
63 64 61 60 56 46 43 44 45 51 49 60 74 79 74 77 77 74 61 57 56 59 49 29 25 21 20 16 30 37 46 39 41 32 33 34 31 31 32 34 31 31 30 30
69 67 66 66 61 53 48 44 48 51 54 52 63 77 83 75 76 73 66 61 56 55 48 41 41 31 26 25 20 34 40 47 42 40 36 37 37 38 37 38 35 34 36 36
79 75 75 70 67 64 54 49 45 49 53 56 54 60 74 86 91 86 79 74 70 70 70 59 52 44 42 36 26 27 38 45 45 42 40 40 40 38 37 38 39 40 39 38
91 87 85 80 77 74 66 56 52 51 52 55 57 56 60 70 78 83 86 85 71 61 56 49 47 43 42 39 29 27 31 42 48 49 48 47 44 40 40 39 38 37 36 34
95 97 96 91 85 80 75 67 59 57 56 58 62 62 61 61 69 71 76 78 77 72 59 55 51 46 43 34 26 28 30 33 36 40 45 44 43 42 40 39 37 38 36 31
101 101 100 97 92 86 81 77 70 66 66 66 66 66 63 64 67 68 70 75 75 74 67 65 57 50 39 24 25 31 32 33 35 34 33 34 36 36 35 35 33 32 32 30
101 100 102 98 95 90 86 83 79 77 75 73 70 67 67 67 65 68 70 73 74 70 66 67 55 52 31 45 32 38 39 38 37 36 36 36 36 35 33 33 33 34 33 31
85 96 100 100 93 94 90 85 84 82 79 73 70 67 64 66 65 63 66 69 73 73 71 74 67 58 56 49 45 47 49 46 42 43 41 38 39 37 34 33 34 34 33 32
68 78 92 97 93 93 93 90 88 88 84 79 73 69 67 66 67 68 66 66 69 73 74 79 74 69 61 60 43 42 39 37 44 52 51 45 39 37 32 34 35 34 32 32
55 63 76 91 93 90 94 95 92 90 88 84 79 76 71 68 68 70 71 65 65 69 74 74 75 76 76 68 53 36 32 34 69 63 59 52 44 38 34 30 30 32 32 33
44 51 62 76 90 91 93 99 97 94 92 90 86 80 75 71 71 71 72 70 65 69 73 75 75 77 79 76 71 63 66 55 57 59 58 58 49 44 38 33 34 32 31 34
32 40 48 58 75 87 92 98 100 98 95 92 89 84 80 75 70 71 71 70 72 71 71 74 75 77 80 84 83 83 80 74 68 65 57 59 57 51 42 39 36 32 30 32
19 28 36 45 57 73 86 92 99 98 97 96 93 89 84 81 77 71 71 72 73 76 73 73 76 78 80 83 86 86 85 85 76 70 65 60 60 58 50 44 40 35 30 31
8 10 20 31 41 53 71 86 94 99 98 99 96 93 90 85 80 74 72 75 74 74 76 74 74 76 78 79 80 82 79 73 72 72 71 66 63 63 58 50 47 44 39 38
21 12 12 21 30 41 55 72 86 96 100 100 97 95 94 91 86 82 78 77 76 77 76 74 75 74 73 76 78 80 81 76 76 71 71 71 64 62 62 56 52 48 46 44
22 19 17 16 22 32 42 52 64 80 94 99 101 99 96 95 92 91 84 80 79 80 79 75 71 74 74 73 74 77 83 84 80 74 73 73 69 66 66 62 57 54 52 51
19 24 22 16 19 23 30 37 47 60 73 86 99 103 102 98 97 96 92 87 85 85 83 78 74 73 74 75 74 75 79 86 88 88 83 80 75 71 68 65 63 61 58 55
Wind_Direction
233 232 233 234 240 242 244 240 233 228 217 219 226 229 230 243 253 272 247 267 273 277 311 303 242 205 138 167 187 163 171 175 185 189 191 188 181 183 167 171 178 192 212 212
233 238 237 237 239 240 236 231 228 225 215 216 219 225 224 238 236 249 254 56 301 317 331 291 178 166 130 134 129 136 138 159 170 173 184 186 183 179 177 174 188 196 210 220
231 234 237 236 241 238 240 238 231 221 214 213 218 220 232 233 233 215 249 248 297 325 306 290 180 167 154 171 143 151 164 164 158 153 153 149 149 166 187 203 217 220 232 233
237 235 235 235 235 234 235 235 234 220 209 211 211 220 225 222 228 225 238 257 281 292 294 285 191 172 164 159 154 159 158 158 153 147 156 150 169 179 192 206 212 214 222 228
233 234 235 239 240 235 235 236 233 221 209 211 208 212 215 216 223 225 233 250 267 287 279 301 254 195 200 171 178 173 173 163 157 167 169 171 176 188 208 206 205 217 219 245
239 232 230 232 236 236 237 237 240 221 208 206 213 213 215 213 211 220 234 243 255 269 315 312 309 204 196 187 187 186 180 179 180 172 180 187 193 196 196 206 210 224 222 241
237 235 235 237 237 235 231 229 234 216 204 202 208 215 215 208 201 220 216 219 246 253 289 321 303 210 202 201 194 192 200 193 184 186 204 187 211 214 209 223 231 240 252 259
238 237 232 239 236 234 231 224 228 217 202 205 208 211 195 211 214 211 225 225 234 250 256 300 297 267 213 211 201 193 190 196 205 210 206 203 205 212 216 229 243 248 259 266
237 234 233 239 235 228 228 223 222 220 205 203 207 213 212 216 219 206 223 232 242 249 242 275 287 260 228 218 207 203 204 205 207 217 225 227 231 247 256 263 265 276 275 272
238 234 233 236 239 231 229 224 222 220 213 205 206 209 214 215 221 225 230 227 236 244 249 263 263 262 257 227 220 213 211 215 219 227 232 241 245 252 260 263 269 272 280 271
240 240 233 234 239 230 229 227 224 225 216 212 209 206 213 218 219 220 223 231 234 242 243 243 240 261 254 244 230 223 221 220 221 223 233 237 243 249 256 256 263 265 268 276
240 240 239 234 233 231 223 223 224 224 224 218 214 211 210 215 222 226 226 224 233 235 237 246 253 245 255 255 246 233 225 225 228 224 224 233 241 247 251 254 258 263 274 279
238 237 238 235 231 231 222 220 221 225 225 225 219 218 215 216 222 227 227 228 233 242 245 250 243 246 246 246 236 248 235 227 231 231 234 235 241 249 255 258 264 268 274 275
238 235 234 232 229 226 224 216 214 219 220 221 223 222 219 218 221 221 225 227 228 232 235 231 238 246 247 240 240 234 240 238 235 236 241 245 248 251 254 257 261 264 268 273
234 234 233 230 224 224 220 217 211 211 219 221 220 218 219 218 219 220 222 224 223 228 225 230 226 235 228 226 233 239 237 238 237 238 243 245 245 246 249 254 257 263 266 267
232 231 232 228 222 219 218 216 214 212 215 220 217 216 218 219 218 217 219 222 219 222 224 227 230 215 217 233 254 258 252 247 244 241 239 241 243 245 245 249 253 255 260 264
232 231 231 230 223 218 216 215 214 218 218 219 221 215 218 221 218 217 215 219 223 221 221 219 214 211 199 260 266 274 263 256 255 247 244 241 241 242 243 245 250 256 260 262
236 230 228 229 223 217 217 216 215 218 221 221 224 219 216 220 223 221 217 217 220 219 215 217 221 213 209 207 209 234 260 260 264 260 253 247 246 245 247 251 254 256 259 260
236 232 229 226 224 218 214 215 216 217 220 221 221 222 215 215 220 223 222 219 220 220 216 215 217 217 214 210 205 215 235 261 268 267 256 251 246 248 251 257 259 259 258 258
235 231 227 224 225 218 214 215 215 216 219 221 220 221 218 215 217 221 222 219 221 223 223 219 216 217 219 218 208 190 168 226 251 251 250 249 246 247 247 255 261 261 258 258
236 233 228 225 221 219 214 213 214 216 217 219 221 220 219 217 215 217 221 221 220 222 224 222 219 217 218 219 205 199 206 216 223 236 241 247 245 245 246 253 259 263 256 260
240 237 234 228 223 221 218 215 214 215 217 218 220 221 221 219 217 217 218 221 223 221 223 223 223 221 218 218 217 213 219 228 234 236 238 241 246 246 249 252 257 259 261 263
265 248 238 231 226 222 220 217 215 215 216 218 219 221 224 225 220 217 216 219 223 224 220 223 223 224 221 221 223 223 224 227 233 236 236 241 243 245 247 250 251 255 258 260
333 266 251 240 232 225 221 221 218 217 216 217 218 220 222 225 226 219 218 221 221 225 223 221 224 226 226 224 225 228 231 234 238 239 240 238 239 243 245 245 250 250 252 254
327 304 247 233 233 230 225 222 220 219 217 216 217 219 221 222 225 224 218 221 222 226 224 221 222 225 228 228 227 228 227 227 234 241 240 241 238 239 243 243 246 251 256 258
334 314 294 262 239 232 229 227 224 221 220 217 216 217 219 221 222 226 223 222 222 226 227 222 223 224 226 228 229 230 230 229 228 234 241 244 243 239 243 247 249 251 252 255
15 338 328 303 277 252 234 232 228 222 220 219 217 217 218 219 221 224 225 224 224 225 226 224 222 224 225 226 229 231 232 231 230 231 233 238 243 243 245 250 255 256 254 253
Height
10859 10863 10869 10875 10877 10883 10888 10894 10902 10906 10919 10929 10931 10934 10939 10946 10950 10948 10945 10944 10943 10943 10938 10934 10932 10933 10936 10937 10938 10939 10939 10942 10947 10953 10961 10968 10974 10982 10990 10996 11002 11007 11010 11012
10851 10852 10858 10864 10867 10871 10873 10878 10885 10893 10907 10917 10921 10929 10933 10940 10947 10947 10943 10940 10943 10941 10933 10931 10933 10935 10936 10937 10939 10941 10941 10943 10947 10954 10961 10966 10972 10979 10988 10991 10999 11004 11006 11006
10839 10841 10846 10857 10857 10861 10862 10864 10872 10883 10893 10904 10915 10924 10929 10940 10939 10940 10938 10942 10942 10939 10938 10935 10936 10937 10936 10938 10940 10943 10944 10946 10950 10956 10962 10969 10974 10979 10986 10991 10996 10998 11001 11003
10829 10834 10843 10842 10843 10846 10848 10852 10861 10872 10880 10886 10906 10915 10920 10925 10928 10930 10933 10936 10937 10937 10937 10934 10934 10935 10937 10940 10942 10945 10947 10950 10954 10959 10966 10972 10975 10981 10987 10990 10994 10996 10998 11002
10819 10825 10831 10833 10830 10833 10837 10846 10859 10864 10871 10879 10896 10902 10911 10917 10921 10922 10924 10928 10932 10932 10932 10929 10930 10933 10937 10941 10943 10946 10950 10954 10957 10960 10965 10971 10975 10980 10985 10989 10991 10994 10997 11000
10809 10814 10818 10815 10811 10825 10836 10844 10852 10856 10864 10873 10886 10899 10903 10907 10916 10919 10920 10924 10929 10930 10928 10928 10929 10929 10934 10939 10943 10946 10951 10954 10958 10961 10965 10968 10973 10978 10982 10985 10987 10991 10993 10994
10799 10804 10808 10800 10807 10819 10826 10838 10839 10843 10855 10867 10877 10887 10894 10903 10905 10908 10910 10914 10920 10926 10927 10927 10927 10928 10933 10937 10941 10945 10950 10955 10957 10961 10965 10968 10971 10975 10979 10982 10985 10988 10989 10990
10787 10792 10794 10787 10799 10810 10818 10828 10830 10835 10845 10853 10863 10873 10883 10888 10893 10901 10902 10908 10915 10920 10923 10923 10926 10926 10930 10935 10938 10942 10946 10952 10956 10959 10962 10966 10969 10972 10976 10979 10981 10983 10985 10986
10773 10776 10781 10776 10790 10799 10806 10817 10821 10827 10835 10840 10849 10859 10871 10876 10883 10893 10895 10900 10907 10911 10917 10919 10921 10924 10926 10931 10935 10938 10941 10946 10951 10955 10957 10961 10964 10968 10971 10974 10976 10978 10979 10979
10753 10761 10768 10772 10779 10792 10800 10807 10811 10817 10825 10833 10838 10844 10854 10864 10871 10882 10887 10893 10897 10901 10908 10916 10918 10920 10925 10927 10931 10934 10937 10940 10945 10949 10953 10956 10959 10963 10967 10969 10971 10972 10974 10975
10740 10745 10756 10760 10767 10782 10789 10796 10800 10803 10813 10822 10828 10838 10844 10850 10859 10870 10879 10886 10889 10892 10900 10910 10914 10915 10920 10923 10926 10929 10932 10936 10940 10944 10948 10951 10954 10958 10961 10963 10965 10965 10968 10969
10724 10729 10738 10746 10757 10766 10774 10781 10786 10791 10798 10808 10817 10828 10838 10842 10852 10864 10873 10879 10880 10883 10892 10901 10908 10912 10915 10918 10920 10923 10927 10931 10934 10937 10940 10944 10948 10951 10953 10954 10956 10958 10960 10961
10698 10707 10711 10726 10739 10747 10758 10768 10775 10779 10787 10796 10805 10813 10823 10833 10839 10849 10861 10869 10872 10874 10884 10894 10897 10902 10907 10910 10912 10917 10921 10923 10926 10930 10933 10936 10939 10942 10944 10945 10946 10949 10951 10952
10665 10677 10681 10695 10709 10724 10738 10748 10757 10763 10768 10776 10787 10797 10804 10814 10822 10832 10841 10849 10859 10867 10873 10882 10887 10893 10899 10905 10908 10910 10916 10919 10921 10923 10925 10928 10932 10934 10934 10936 10937 10939 10942 10943
10635 10640 10649 10663 10682 10699 10715 10727 10738 10746 10750 10758 10764 10771 10780 10791 10800 10811 10820 10830 10843 10853 10861 10869 10877 10884 10890 10896 10897 10904 10909 10913 10916 10916 10917 10920 10922 10923 10925 10927 10929 10931 10933 10935
10600 10609 10620 10637 10656 10675 10693 10707 10717 10727 10731 10734 10742 10752 10761 10770 10779 10791 10802 10812 10826 10836 10847 10856 10866 10878 10886 10893 10896 10901 10905 10907 10912 10912 10911 10911 10913 10914 10916 10917 10920 10922 10923 10925
10569 10586 10597 10613 10636 10657 10670 10686 10697 10705 10713 10718 10727 10740 10748 10753 10762 10775 10787 10795 10807 10821 10833 10844 10854 10870 10871 10885 10891 10896 10900 10902 10904 10906 10906 10905 10905 10906 10908 10909 10910 10911 10913 10915
10542 10556 10571 10587 10610 10632 10651 10667 10679 10687 10695 10707 10717 10730 10740 10747 10754 10762 10772 10784 10794 10808 10820 10830 10843 10858 10874 10880 10894 10905 10896 10892 10894 10896 10897 10898 10897 10898 10898 10900 10901 10902 10903 10904
10517 10531 10547 10563 10583 10610 10628 10643 10656 10667 10678 10689 10701 10712 10725 10735 10741 10748 10759 10773 10782 10791 10802 10815 10831 10844 10856 10870 10882 10888 10897 10889 10884 10888 10890 10889 10890 10890 10890 10890 10892 10893 10894 10894
10502 10512 10523 10540 10559 10584 10606 10621 10634 10649 10662 10671 10683 10693 10706 10719 10728 10735 10744 10758 10769 10778 10786 10801 10815 10827 10838 10852 10868 10875 10892 10897 10876 10871 10877 10881 10881 10882 10882 10882 10883 10885 10886 10886
10493 10500 10508 10520 10533 10554 10577 10593 10607 10626 10639 10650 10663 10677 10688 10700 10712 10721 10732 10744 10753 10758 10769 10783 10797 10810 10821 10833 10850 10849 10842 10845 10846 10854 10864 10869 10872 10872 10873 10875 10876 10877 10876 10876
10487 10492 10499 10508 10521 10538 10555 10569 10585 10602 10617 10633 10646 10659 10670 10684 10695 10707 10718 10729 10732 10741 10752 10764 10777 10789 10800 10811 10825 10833 10832 10835 10839 10848 10852 10854 10857 10861 10864 10866 10868 10868 10868 10868
10487 10488 10491 10497 10507 10520 10531 10551 10567 10583 10598 10612 10627 10641 10653 10663 10675 10690 10703 10709 10714 10723 10735 10745 10755 10763 10777 10790 10801 10812 10820 10826 10829 10834 10839 10840 10843 10848 10852 10855 10857 10860 10859 10859
10485 10484 10487 10491 10497 10506 10518 10530 10544 10560 10576 10590 10607 10621 10633 10645 10656 10673 10684 10689 10698 10703 10718 10730 10737 10746 10757 10770 10782 10791 10800 10807 10811 10815 10820 10826 10832 10834 10839 10843 10845 10847 10849 10849
10481 10481 10482 10483 10486 10491 10498 10506 10520 10535 10552 10568 10585 10600 10614 10626 10639 10646 10661 10672 10682 10686 10699 10713 10722 10731 10742 10752 10762 10771 10779 10787 10793 10797 10802 10809 10816 10820 10824 10828 10832 10833 10834 10835
10480 10477 10475 10475 10477 10481 10484 10491 10502 10511 10526 10545 10560 10576 10589 10604 10617 10625 10640 10653 10664 10670 10680 10696 10708 10717 10727 10737 10745 10753 10760 10768 10776 10783 10786 10790 10797 10805 10808 10810 10815 10820 10823 10826
10482 10475 10470 10470 10469 10470 10473 10478 10484 10490 10502 10517 10533 10547 10565 10580 10595 10606 10618 10631 10642 10650 10663 10678 10691 10699 10709 10720 10728 10734 10740 10747 10756 10762 10767 10769 10776 10785 10791 10797 10802 10804 10806 10809